Miscellaneous Local Product
Issued by NWS Hastings, NE

Home | Current Version | Previous Version | Graphics & Text | Print | Product List | Glossary On
Versions: 1 2 3 4 5 6 7 8 9 10 11 12 13 14 15 16 17 18 19 20 21 22 23 24 25 26 27 28 29 30 31 32 33 34 35 36 37 38 39 40 41 42 43 44 45 46 47 48 49 50
000
AXUS43 KGID 030802
MISGRI

GID CWA HOURLY WEATHER ROUNDUP
NATIONAL WEATHER SERVICE HASTINGS NE
300 AM CDT THU SEP 03 2015

NOTE: "FAIR" INDICATES FEW OR NO CLOUDS BELOW 12,000 FEET WITH NO
SIGNIFICANT WEATHER AND/OR OBSTRUCTIONS TO VISIBILITY.

...SOUTH CENTRAL NEBRASKA...

CITY           SKY/WX    TMP DP  RH WIND       PRES   REMARKS
GRAND ISLAND   CLEAR     72  64  76 S8        29.83F
HASTINGS       CLEAR     74  63  68 S8        29.84F
KEARNEY        CLEAR     70  61  73 S8        29.84S
ORD            CLEAR     65  64  97 SE3       29.81F
YORK           CLEAR     72  66  83 S8        29.84F
AURORA         CLEAR     70  67  91 S6        29.83F
LEXINGTON      PTCLDY    68  63  83 E3        29.83S
HOLDREGE       CLEAR     71  60  66 S7        29.84F
HEBRON         CLEAR     76  63  64 S12       29.85F

...NEBRASKA PANHANDLE...

CITY           SKY/WX    TMP DP  RH WIND       PRES   REMARKS
CHADRON        PTCLDY    68  46  45 W5        29.83S
ALLIANCE       PTCLDY    60  52  74 SE8       29.89F
SCOTTSBLUFF    PTCLDY    66  52  60 E6        29.91S
SIDNEY         PTCLDY    61  48  62 W3        29.94F

...WESTERN AND NORTH CENTRAL NEBRASKA...

CITY           SKY/WX    TMP DP  RH WIND       PRES   REMARKS
VALENTINE      CLEAR     72  61  68 SW12      29.82S
AINSWORTH      CLEAR     68  62  82 S8        29.83S
ONEILL         CLEAR     69  68  94 S6        29.83S
BROKEN BOW     CLEAR     62  60  93 CALM      29.84F
IMPERIAL       PTCLDY    66  56  70 SW3       29.86S
NORTH PLATTE   CLEAR     66  62  87 E7        29.83F
MCCOOK         PTCLDY    73  56  54 S6        29.82F

...EASTERN NEBRASKA...

CITY           SKY/WX    TMP DP  RH WIND       PRES   REMARKS
NORFOLK        CLEAR     69  66  90 E5        29.82F
SO SIOUX CITY  CLEAR     72  67  84 E9        29.83F
TEKAMAH        PTCLDY    72  69  90 SE9       29.84F
COLUMBUS       CLEAR     73  63  68 S6        29.83F
ALBION         CLEAR     68  64  88 SE6       29.83F
OMAHA EPPLEY   CLEAR     77  70  79 S13       29.85F
OFFUTT AFB     CLEAR     73  69  88 E8        29.85F
MILLARD        CLEAR     73  69  88 SE5       29.86S
LINCOLN        CLEAR     75  67  76 S9        29.84F
NEBRASKA CITY  PTCLDY    72  66  81 S8        29.88S
BEATRICE       CLEAR     75  67  75 S9        29.87S
FALLS CITY     MOCLDY    74  69  85 S8        29.88F

...NORTHERN KANSAS...

CITY           SKY/WX    TMP DP  RH WIND       PRES   REMARKS
GOODLAND       PTCLDY    73  55  53 SW10      29.88F
HILL CITY      PTCLDY    78  58  49 S8        29.84F
NORTON         SUNNY     75  54  46 S8        29.82F
PHILLIPSBURG   CLEAR     79  59  50 CALM      29.84F
SMITH CENTER   CLEAR     72  61  68 SE8       29.85F
HAYS           MOCLDY    75  55  50 S9        29.87S
RUSSELL        MOCLDY    78  60  53 S16       29.85F
CONCORDIA      PTCLDY    76  64  66 S17G26    29.85F
SALINA         CLEAR     79  63  57 S14G28    29.87F
TOPEKA         CLEAR     76  68  76 S10       29.91F



USA.gov is the U.S. government's official web portal to all federal, state and local government web resources and services.